[Iaude] MPEC E06: 2024 EA [a=2.41,e=0.62,i=7.0,H=22.1]

mpec at cfa.harvard.edu mpec at cfa.harvard.edu
Fri Mar 1 15:07:59 EST 2024


M.P.E.C. 2024-E06                                 Issued 2024 March 1, 20:06 UT

     The Minor Planet Electronic Circulars contain information on unusual
         minor planets, routine data on comets and natural satellites,
         and occasional editorial announcements.  They are published
    on behalf of Division F of the International Astronomical Union by the
          Minor Planet Center, Smithsonian Astrophysical Observatory,
                          Cambridge, MA 02138, U.S.A.
			  
             Prepared using the Tamkin Foundation Computer Network

                              MPC at CFA.HARVARD.EDU
            URL https://www.minorplanetcenter.net/    ISSN 1523-6714

                                    2024 EA                                     


Observations:
     K24E00A  C2024 02 28.24094202 59 16.030+19 56 22.42         19.20GVEE006F51
     K24E00A  C2024 02 28.24481802 59 18.959+19 57 20.97         19.26GVEE006F51
     K24E00A  C2024 02 28.24869002 59 21.909+19 58 19.81         19.34GVEE006F51
     K24E00A  C2024 02 28.25256202 59 24.844+19 59 18.59         19.12GVEE006F51
     K24E00A*1C2024 03 01.13960703 32 43.465+29 37 37.20         19.00GVEE006703
     K24E00A 1C2024 03 01.14184003 32 46.504+29 38 23.89               VEE006703
     K24E00A 1C2024 03 01.14407503 32 49.322+29 39 11.81         18.98GVEE006703
     K24E00A 1C2024 03 01.19713003 34 00.736+29 57 55.08         18.17GVEE006703
     K24E00A 1C2024 03 01.19860903 34 02.748+29 58 26.15         18.87GVEE006703
     K24E00A 1C2024 03 01.20156503 34 06.823+29 59 28.72         18.50GVEE006703
     K24E00A 1C2024 03 01.23165503 34 48.540+30 10 07.68         18.97GVEE006703
     K24E00A 1C2024 03 01.23356103 34 51.200+30 10 48.50         18.65GVEE006703
     K24E00A 1C2024 03 01.23451203 34 52.504+30 11 08.38         18.52GVEE006703
     K24E00A KB2024 03 01.80616 03 49 48.40 +33 47 43.0          18.1 GXEE006K19
     K24E00A KB2024 03 01.80862 03 49 52.39 +33 48 39.9          17.7 GXEE006K19
     K24E00A KB2024 03 01.80975 03 49 55.037+33 49 26.65         18.3 GXEE006J57
     K24E00A KB2024 03 01.81110 03 49 56.51 +33 49 37.9          18.3 GXEE006K19
     K24E00A KB2024 03 01.81251 03 49 59.573+33 50 31.09         18.7 GXEE006J57
     K24E00A KB2024 03 01.81557 03 50 04.594+33 51 42.16         18.5 GXEE006J57

Observer details:
703 Catalina Sky Survey.  Observer J. B. Fazekas.  Measurers T. Beuden, V. F.
    Carvajal, D. Fay, J. B. Fazekas, D. C. Fuls, A. R. Gibbs, A. D. Grauer, H.
    Groeller, J. K. Hogan, R. A. Kowalski, S. M. Larson, G. J. Leonard, D.
    Rankin, R. L. Seaman, F. C. Shelly, K. W. Wierzchos.  0.68-m Schmidt + 10K
    CCD.
F51 Pan-STARRS 1, Haleakala.  Observers J. Herman, T. Lowe, P. Minguez, A.
    Schultz, I. Smith.  Measurers K. Chambers, T. de Boer, J. Fairlamb, H.
    Gao, M. Huber, C.-C. Lin, E. Magnier, Y. Ramanjooloo, R. Wainscoat, R.
    Weryk.  1.8-m Ritchey-Chretien + CCD.
J57 Centro Astronomico Alto Turia, Valencia.  Observer A. Fornas.  Measurers
    A. Fornas, G. Fornas, E. Arce, V. Mas.  0.43-m f/6.8 Reflector CDK + CMO.
K19 PASTIS Observatory, Banon.  Observer C. Demeautis.  0.28-m f/2.2 reflector
    + CMO.

Orbital elements:
2024 EA                                                  Earth MOID = 0.0103 AU
Epoch 2024 Mar. 31.0 TT = JDT 2460400.5                 MPC                     
M  14.64066              (2000.0)            P               Q                  
n   0.26419593     Peri.  328.72464     -0.55247163     -0.83188546             
a   2.4053889      Node   154.69728     +0.78782009     -0.54165941             
e   0.6196179      Incl.    7.03701     +0.27223999     -0.12071318             
P   3.73           H   22.14          G   0.15           U   9                  
Residuals in seconds of arc
240228 F51  0.0   0.2+    240301 703  0.2+  0.3+    240301 K19  0.5-  0.3-
240228 F51  0.1-  0.1-    240301 703  0.1+  0.0     240301 J57  0.0   0.0
240228 F51  0.1+  0.0     240301 703  0.4+  0.1-    240301 K19  0.0   0.2+
240228 F51  0.0   0.0     240301 703  0.8+  0.1-    240301 J57  0.1+  0.1+
240301 703  0.2-  0.3-    240301 703  0.7+  0.2+    240301 J57  0.1+  0.1+
240301 703  1.0+  0.8-    240301 703  0.3+  0.1-
240301 703  0.8-  0.1-    240301 K19  0.2+  0.1-

Ephemeris:
2024 EA                  a,e,i = 2.41, 0.62, 7                   q = 0.9150
Date    TT    R. A. (2000) Decl.     Delta      r    Elong.  Phase     V
2024 01 31    01 24 08.0 -09 15 31   0.2392  0.9170    66.7    99.5    22.4
...
2024 02 15    01 50 42.6 -03 07 57   0.1374  0.9266    60.0   112.6    22.0
...
2024 02 23    02 16 53.3 +05 27 53   0.08363 0.9509    60.6   115.0    21.1
...
2024 02 29    03 10 41.1 +23 25 38   0.04815 0.9769    72.2   105.1    19.4
2024 03 01    03 29 43.5 +28 48 26   0.04353 0.9818    76.8   100.7    19.0
2024 03 02    03 55 36.4 +35 05 10   0.03967 0.9869    82.8    94.9    18.5
...
2024 03 08    09 58 29.9 +52 27 46   0.04239 1.0204   129.9    48.2    17.1
...
2024 03 16    12 19 39.2 +32 08 45   0.08948 1.0720   148.5    29.0    18.3
...
2024 03 31    12 52 20.9 +20 51 09   0.2018  1.1846   154.8    21.1    20.1

A. U. Tomatic                (C) Copyright 2024 MPC           M.P.E.C. 2024-E06





More information about the Iaude mailing list